| time (UTC) | temp C | wind direction | speed KPH | gust KPH | rain 1hr cm | rain 24hr cm | rain mn cm | humidity % | barometer mb |
| 20260504160137 | 11 | 325 | 9.7 | 24.1 | 0.00 | 0.00 | 0.00 | 48 | 1010.1 |
| 20260504150136 | 11 | 71 | 8.0 | 29.0 | 0.00 | 0.00 | 0.00 | 53 | 1010.3 |
| 20260504140135 | 7 | 182 | 6.4 | 11.3 | 0.00 | 0.00 | 0.00 | 60 | 1010.5 |
| 20260504130134 | 7 | 222 | 1.6 | 11.3 | 0.00 | 0.00 | 0.00 | 60 | 1011.5 |
| 20260504120133 | 8 | 165 | 0.0 | 19.3 | 0.00 | 0.00 | 0.00 | 55 | 1011.9 |
| 20260504110132 | 8 | 286 | 17.7 | 25.7 | 0.00 | 0.00 | 0.00 | 59 | 1010.7 |
| 20260504100131 | 6 | 292 | 4.8 | 22.5 | 0.00 | 0.00 | 0.00 | 63 | 1009.0 |
| 20260504090130 | 7 | 151 | 0.0 | 9.7 | 0.00 | 0.00 | 0.00 | 58 | 1008.2 |
| 20260504080128 | 7 | 189 | 12.9 | 16.1 | 0.00 | 0.00 | 0.00 | 60 | 1008.1 |
| 20260504070128 | 8 | 169 | 1.6 | 17.7 | 0.00 | 0.00 | 0.00 | 56 | 1008.5 |
| 20260504060127 | 10 | 113 | 4.8 | 12.9 | 0.00 | 0.00 | 0.00 | 52 | 1008.0 |
| 20260504050125 | 11 | 170 | 9.7 | 16.1 | 0.00 | 0.00 | 0.00 | 46 | 1008.0 |
| 20260504043125 | 11 | 152 | 1.6 | 9.7 | 0.00 | 0.00 | 0.00 | 45 | 1007.1 |
| 20260504040125 | 13 | 177 | 3.2 | 4.8 | 0.00 | 0.00 | 0.00 | 37 | 1007.5 |
| 20260504033124 | 15 | 290 | 3.2 | 3.2 | 0.00 | 0.00 | 0.00 | 34 | 1006.4 |
| 20260504030124 | 17 | 290 | 0.0 | 3.2 | 0.00 | 0.00 | 0.00 | 32 | 1006.3 |
| 20260504023123 | 18 | 290 | 0.0 | 11.3 | 0.00 | 0.00 | 0.00 | 31 | 1006.1 |
| 20260504020123 | 21 | 313 | 4.8 | 16.1 | 0.00 | 0.00 | 0.00 | 27 | 1006.5 |
| 20260504010121 | 23 | 323 | 4.8 | 19.3 | 0.00 | 0.00 | 0.00 | 18 | 1006.2 |
| 20260504003121 | 23 | 161 | 8.0 | 22.5 | 0.00 | 0.00 | 0.00 | 19 | 1005.9 |
| 20260504000150 | 23 | 238 | 3.2 | 22.5 | 0.00 | 0.00 | 0.00 | 17 | 1006.4 |
| 20260503230149 | 23 | 191 | 6.4 | 17.7 | 0.00 | 0.00 | 0.00 | 20 | 1007.3 |
| 20260503223119 | 23 | 262 | 9.7 | 24.1 | 0.00 | 0.00 | 0.00 | 20 | 1007.8 |
| 20260503220148 | 22 | 254 | 8.0 | 22.5 | 0.00 | 0.00 | 0.00 | 22 | 1008.3 |
| 20260503213147 | 22 | 22 | 8.0 | 20.9 | 0.00 | 0.00 | 0.00 | 22 | 1009.0 |
| 20260503203147 | 21 | 263 | 6.4 | 27.4 | 0.00 | 0.00 | 0.00 | 25 | 1010.4 |
| 20260503193146 | 21 | 163 | 6.4 | 19.3 | 0.00 | 0.00 | 0.00 | 29 | 1011.7 |
| 20260503190145 | 20 | 289 | 12.9 | 16.1 | 0.00 | 0.00 | 0.00 | 32 | 1011.8 |
| 20260503183145 | 20 | 79 | 3.2 | 11.3 | 0.00 | 0.00 | 0.00 | 34 | 1013.0 |
| 20260503180144 | 18 | 116 | 3.2 | 11.3 | 0.00 | 0.00 | 0.00 | 37 | 1013.0 |
| 20260503173144 | 17 | 13 | 3.2 | 11.3 | 0.00 | 0.00 | 0.00 | 40 | 1013.6 |